TimeCST,TemperatureF,Dew PointF,Humidity,Sea Level PressureIn,VisibilityMPH,Wind Direction,Wind SpeedMPH,Gust SpeedMPH,PrecipitationIn,Events,Conditions,WindDirDegrees,DateUTC
12:53 AM,36.0,34.0,93,30.08,9.0,West,3.5,-,N/A,,Clear,260,2013-03-06 06:53:00
1:53 AM,39.0,34.0,82,30.09,10.0,NW,9.2,-,N/A,,Clear,310,2013-03-06 07:53:00
2:53 AM,41.0,25.0,53,30.08,10.0,NW,13.8,24.2,N/A,,Clear,310,2013-03-06 08:53:00
3:53 AM,39.0,28.0,65,30.10,10.0,WNW,12.7,18.4,N/A,,Clear,300,2013-03-06 09:53:00
4:53 AM,37.0,25.0,62,30.14,10.0,NW,15.0,23.0,N/A,,Clear,310,2013-03-06 10:53:00
5:53 AM,37.0,24.1,59,30.16,10.0,NW,15.0,19.6,N/A,,Clear,320,2013-03-06 11:53:00
6:53 AM,37.0,24.1,59,30.17,10.0,WNW,8.1,-,N/A,,Clear,290,2013-03-06 12:53:00
7:53 AM,39.0,21.9,50,30.19,10.0,NW,18.4,28.8,N/A,,Clear,320,2013-03-06 13:53:00
8:53 AM,39.9,21.9,49,30.21,10.0,NW,20.7,33.4,N/A,,Clear,320,2013-03-06 14:53:00
9:53 AM,43.0,23.0,45,30.22,10.0,NW,18.4,27.6,N/A,,Clear,320,2013-03-06 15:53:00
10:53 AM,45.0,23.0,42,30.22,10.0,NNW,15.0,23.0,N/A,,Clear,340,2013-03-06 16:53:00
11:53 AM,46.9,24.1,41,30.20,10.0,NW,16.1,25.3,N/A,,Clear,310,2013-03-06 17:53:00
12:53 PM,48.9,25.0,39,30.18,10.0,NNW,17.3,24.2,N/A,,Clear,330,2013-03-06 18:53:00
1:53 PM,50.0,25.0,38,30.17,10.0,NW,16.1,24.2,N/A,,Clear,320,2013-03-06 19:53:00
2:53 PM,50.0,26.1,39,30.18,10.0,NW,13.8,27.6,N/A,,Clear,310,2013-03-06 20:53:00
3:53 PM,50.0,26.1,39,30.18,10.0,NNW,13.8,24.2,0.01,,Clear,330,2013-03-06 21:53:00
4:53 PM,48.0,26.1,42,30.19,10.0,NNW,15.0,-,N/A,,Clear,330,2013-03-06 22:53:00
5:53 PM,45.0,27.0,49,30.20,10.0,NNW,8.1,-,N/A,,Clear,340,2013-03-06 23:53:00
6:53 PM,41.0,28.0,60,30.22,10.0,NNW,5.8,-,N/A,,Clear,340,2013-03-07 00:53:00
7:53 PM,37.9,28.9,70,30.24,10.0,NNW,3.5,-,N/A,,Clear,330,2013-03-07 01:53:00
8:53 PM,37.9,28.0,68,30.24,10.0,North,3.5,-,N/A,,Clear,10,2013-03-07 02:53:00
9:53 PM,35.1,28.9,78,30.25,10.0,Calm,Calm,-,N/A,,Clear,0,2013-03-07 03:53:00
10:53 PM,35.1,27.0,72,30.26,10.0,NW,4.6,-,N/A,,Clear,310,2013-03-07 04:53:00
11:53 PM,34.0,27.0,75,30.25,10.0,NW,6.9,-,N/A,,Clear,310,2013-03-07 05:53:00